[[{"header":{"parameterUnit":"m.s-1","parameterCategory":2,"la1":30.2991,"la2":30.254,"lo1":-89.0895,"lo2":-89.0444,"dy":0.0017,"dx":0.0017,"nx":28,"ny":28,"refTime":"2024-02-20T03:00:00:Z","depth":"0","parameterNumber":2,"parameterNumberName":"U-component_of_CURRENTS"},"data":[0,0,0,0,0,0,0,0,0,0,0,0,0,0,0,0,0,0,0,0,0,0,0,0,0,0,0,0,0,0,0,0,0,0,0,0,0,0,0,0,0,0,0,0,0,0,0,0,0,0,0,0,0,0,0,0,0,0,0.3472,0.3472,0,0.3429,0.3428,0.3427,0.335,0.335,0.3349,0.3348,0.3117,0.3112,0.3107,0,0,0,0,0,0,0,0,0,0,0,0,0,0.3473,0.3473,0.3472,0.3472,0.3472,0.343,0.3428,0.3427,0.3351,0.335,0.3349,0.3348,0.3119,0.3113,0.3106,0,0,0,0,0,0,0,0,0,0,0,0,0,0.3449,0.3473,0.3472,0.3435,0.3431,0.343,0.3428,0.3427,0.3351,0.335,0.3348,0.3347,0.3121,0.3113,0.3105,0.3078,0,0,0.308,0.3077,0,0,0,0,0,0,0,0,0.345,0.3447,0.344,0.3437,0.3434,0.3401,0.3345,0.3303,0.3351,0.3373,0.3348,0.3347,0.32,0.3186,0.3172,0.3067,0.3057,0.308,0.3075,0.3071,0.3069,0,0,0,0,0,0,0,0.3452,0.3449,0.3447,0.344,0.3437,0.3416,0.341,0.3336,0.3284,0.3371,0.3367,0.3375,0.3196,0.318,0.3166,0.3054,0.308,0.3073,0.3067,0.3064,0.2953,0.2955,0,0,0,0,0,0,0.3475,0.3451,0.3449,0.3447,0.3448,0.3418,0.3411,0.3406,0.3289,0.3274,0.3376,0.3372,0.3195,0.3175,0.3157,0.3138,0.3071,0.3063,0.3059,0.2951,0.2954,0.2956,0,0,0,0,0,0,0.3475,0.3474,0.345,0.3455,0.3451,0.342,0.3414,0.3406,0.3401,0.3297,0.3276,0.3382,0.3193,0.3168,0.3097,0.3128,0.306,0.3052,0.2949,0.2952,0.2955,0.3087,0,0,0,0,0,0,0.3474,0.3474,0.3477,0.3456,0.3452,0.3469,0.3416,0.3406,0.341,0.3404,0.3294,0.3271,0.319,0.311,0.3089,0.3115,0.3046,0.2947,0.295,0.2954,0.308,0.3094,0.3106,0,0,0,0,0,0.3474,0.3481,0.3477,0.3477,0.3456,0.3472,0.3468,0.3436,0.3412,0.3423,0.3338,0.3275,0.312,0.3104,0.3079,0.3104,0.2945,0.2949,0.2954,0.3074,0.3091,0.3105,0,0,0,0,0,0,0.3468,0.3474,0.3468,0.3472,0.3485,0.3462,0.3462,0.3454,0.34,0.3377,0.3278,0.3249,0.3209,0.3141,0.3127,0.3088,0.3031,0.303,0.3131,0.3146,0.3159,0.3164,0.3039,0,0,0,0,0,0.3477,0.3483,0.3494,0.3495,0.3506,0.3491,0.3492,0.3479,0.3436,0.3413,0.3348,0.3271,0.321,0.3164,0.3103,0.3063,0.3027,0.3072,0.3085,0.3096,0.3087,0.3073,0.3083,0.297,0.297,0.297,0,0,0.347,0.3477,0.3477,0.3497,0.3491,0.3513,0.3486,0.3495,0.3502,0.3391,0.3367,0.3311,0.3213,0.3177,0.3154,0.3117,0.3118,0.3101,0.3111,0.3096,0.3078,0.3089,0.3099,0.2973,0.2973,0.2972,0,0,0.3464,0.3474,0.348,0.3501,0.3521,0.3529,0.3545,0.3545,0.3534,0.3513,0.3444,0.3406,0.3313,0.3258,0.3212,0.3259,0.3195,0.3255,0.3305,0.3293,0.3302,0.3309,0.3313,0.3319,0.3251,0.3252,0.3252,0,0.3457,0.3459,0.3486,0.3505,0.3517,0.3546,0.3559,0.3569,0.3548,0.353,0.3518,0.3418,0.3351,0.3295,0.3321,0.3286,0.3274,0.3252,0.331,0.3316,0.3321,0.3322,0.3327,0.3259,0.3258,0.3257,0.3256,0,0.3455,0.3464,0.3473,0.3508,0.3539,0.3552,0.359,0.3614,0.3615,0.3608,0.358,0.3511,0.3443,0.3445,0.3387,0.3396,0.3378,0.3338,0.327,0.334,0.3338,0.3341,0.3269,0.3266,0.3264,0.3262,0,0,0.3408,0.3457,0.346,0.3461,0.3533,0.3546,0.3598,0.3624,0.3627,0.3639,0.3628,0.3577,0.3557,0.3507,0.346,0.3458,0.3507,0.3423,0.3419,0.3427,0.3499,0.3467,0.3466,0.3481,0.3482,0.3482,0.3496,0,0.3387,0.34,0.345,0.3469,0.3473,0.3537,0.3577,0.3612,0.3635,0.3646,0.3621,0.3591,0.3576,0.3547,0.3553,0.3506,0.3516,0.3508,0.3428,0.3426,0.3388,0.3468,0.3337,0.3336,0.3499,0.3499,0.3499,0,0.335,0.3368,0.3375,0.3415,0.3426,0.3461,0.3512,0.3553,0.3603,0.3616,0.3622,0.3609,0.361,0.3592,0.3576,0.3574,0.3551,0.3531,0.353,0.3446,0.3398,0.3285,0.3334,0.324,0.3503,0.3503,0.3502,0,0.3255,0.3302,0.3297,0.3313,0.3389,0.3403,0.3454,0.3522,0.3558,0.36,0.3631,0.3623,0.362,0.3608,0.3596,0.3582,0.3588,0.3548,0.3503,0.3501,0.3342,0.3325,0.3281,0.3542,0.3542,0.3542,0.3542,0,0.3183,0.3172,0.3246,0.3238,0.3256,0.3328,0.3362,0.3418,0.3499,0.3526,0.3601,0.3614,0.3627,0.3638,0.3615,0.3584,0.3601,0.3526,0.3503,0.339,0.3377,0.3246,0.3198,0.3543,0.3543,0.3543,0.3543,0,0.3061,0.3103,0.3104,0.3178,0.3204,0.3216,0.3334,0.3354,0.3456,0.3504,0.3525,0.3614,0.3626,0.3653,0.3625,0.3597,0.3465,0.3547,0.3432,0.3395,0.3247,0.3211,0.3052,0.2965,0.3491,0.349,0.3489,0,0.2989,0.298,0.3057,0.3074,0.3105,0.3156,0.3195,0.3313,0.3352,0.348,0.3485,0.3552,0.3578,0.3591,0.3549,0.3531,0.3419,0.338,0.3321,0.3236,0.3179,0.3091,0.3023,0.3177,0.3174,0.3172,0.317,0,0.2885,0.2922,0.2947,0.2987,0.3019,0.3067,0.3128,0.3163,0.3284,0.3327,0.3383,0.3426,0.349,0.3409,0.342,0.3388,0.3218,0.3326,0.3247,0.2945,0.2832,0.2737,0.3195,0.3147,0.3149,0.3151,0.3152,0.3153,0.2828,0.2829,0.288,0.2901,0.2935,0.2955,0.2941,0.3009,0.3046,0.307,0.3194,0.3195,0.3232,0.324,0.3193,0.3055,0.3069,0.2932,0.2905,0.2833,0.271,0.3142,0.3063,0.3064,0.3066,0.3067,0.3068,0,0.2754,0.2769,0.2791,0.2803,0.2776,0.284,0.287,0.2826,0.2784,0.2859,0.2881,0.288,0.2827,0.2845,0.2776,0.2652,0.2553,0.2556,0.2385,0.2347,0.273,0.2678,0.2499,0.2499,0.2499,0.2499,0.25,0.25,0.2723,0.2706,0.271,0.2642,0.2634,0.2561,0.2541,0.2493,0.2515,0.2442,0.2417,0.2473,0.2583,0.2536,0.2399,0.2333,0.2151,0.2049,0.206,0.2318,0.2351,0.2382,0.2322,0.2072,0.2071,0.1589,0.1585,0.1582]},{"header":{"parameterUnit":"m.s-1","parameterCategory":2,"la1":30.2991,"la2":30.254,"lo1":-89.0895,"lo2":-89.0444,"dy":0.0017,"dx":0.0017,"nx":28,"ny":28,"refTime":"2024-02-20T03:00:00:Z","depth":"0","parameterNumber":3,"parameterNumberName":"V-component_of_CURRENTS"},"data":[0,0,0,0,0,0,0,0,0,0,0,0,0,0,0,0,0,0,0,0,0,0,0,0,0,0,0,0,0,0,0,0,0,0,0,0,0,0,0,0,0,0,0,0,0,0,0,0,0,0,0,0,0,0,0,0,0,0,-0.0133,-0.0133,0,-0.0134,-0.0134,-0.0134,-0.0127,-0.0127,-0.0126,-0.0126,-0.0093,-0.0093,-0.0092,0,0,0,0,0,0,0,0,0,0,0,0,0,-0.015,-0.0149,-0.0133,-0.0133,-0.0133,-0.0134,-0.0134,-0.0134,-0.0127,-0.0127,-0.0126,-0.0126,-0.0094,-0.0093,-0.0092,0,0,0,0,0,0,0,0,0,0,0,0,0,-0.0145,-0.0149,-0.0133,-0.013,-0.013,-0.0134,-0.0134,-0.0134,-0.0127,-0.0127,-0.0126,-0.0126,-0.0094,-0.0093,-0.0092,-0.0089,0,0,-0.0088,-0.0088,0,0,0,0,0,0,0,0,-0.0145,-0.0144,-0.013,-0.013,-0.013,-0.0131,-0.0128,-0.0117,-0.0127,-0.0127,-0.0126,-0.0126,-0.0103,-0.0102,-0.0101,-0.0087,-0.0086,-0.0088,-0.0087,-0.0087,-0.0087,0,0,0,0,0,0,0,-0.0145,-0.0144,-0.0132,-0.0131,-0.013,-0.0138,-0.0136,-0.0126,-0.0115,-0.0127,-0.0127,-0.0128,-0.0103,-0.0103,-0.0101,-0.0085,-0.0088,-0.0087,-0.0086,-0.0086,-0.0052,-0.0052,0,0,0,0,0,0,-0.0146,-0.0144,-0.0132,-0.0133,-0.0138,-0.0137,-0.0136,-0.013,-0.0116,-0.0114,-0.0128,-0.0128,-0.0105,-0.0102,-0.0099,-0.007,-0.0087,-0.0086,-0.0085,-0.0053,-0.0052,-0.0052,0,0,0,0,0,0,-0.0146,-0.0144,-0.0132,-0.014,-0.0139,-0.0137,-0.0131,-0.013,-0.0131,-0.0117,-0.0115,-0.013,-0.0104,-0.0101,-0.0075,-0.0069,-0.0085,-0.0084,-0.0053,-0.0052,-0.0052,-0.0027,0,0,0,0,0,0,-0.0146,-0.0144,-0.0143,-0.0139,-0.0138,-0.0131,-0.0131,-0.013,-0.0132,-0.0132,-0.0118,-0.0114,-0.0104,-0.0077,-0.0074,-0.0068,-0.0083,-0.0053,-0.0053,-0.0052,-0.0028,-0.0025,-0.0023,0,0,0,0,0,-0.0147,-0.0139,-0.0143,-0.0142,-0.0135,-0.0131,-0.0131,-0.0129,-0.0133,-0.013,-0.0111,-0.0115,-0.0073,-0.0075,-0.0072,-0.0066,-0.0053,-0.0053,-0.0052,-0.0029,-0.0026,-0.0024,0,0,0,0,0,0,-0.0142,-0.0137,-0.0142,-0.0132,-0.0133,-0.013,-0.0124,-0.0131,-0.0118,-0.0111,-0.0103,-0.0098,-0.0077,-0.0076,-0.0079,-0.0057,-0.0068,-0.0066,-0.0051,-0.0048,-0.0046,-0.0035,-0.0083,0,0,0,0,0,-0.0143,-0.0134,-0.0136,-0.0128,-0.0126,-0.0128,-0.0128,-0.0128,-0.0117,-0.0112,-0.0103,-0.0091,-0.0074,-0.0063,-0.0052,-0.0035,-0.0045,-0.0033,-0.003,-0.0029,-0.0018,-0.0024,-0.0022,-0.005,-0.005,-0.005,0,0,-0.0137,-0.0135,-0.013,-0.0127,-0.0123,-0.0108,-0.0127,-0.012,-0.0105,-0.0109,-0.0082,-0.0082,-0.0069,-0.0046,-0.0038,-0.0042,-0.0029,-0.0028,-0.0026,-0.0017,-0.0023,-0.0021,-0.0018,-0.005,-0.005,-0.005,0,0,-0.0111,-0.0119,-0.0099,-0.0098,-0.0095,-0.0097,-0.0096,-0.0095,-0.009,-0.0073,-0.0069,-0.0062,-0.0044,-0.0029,-0.002,-0.0001,-0.002,-0.0008,0.0018,0.0012,0.0014,0.0016,-0.0008,-0.0008,-0.0004,-0.0004,-0.0004,0,-0.0107,-0.0079,-0.0094,-0.0074,-0.0065,-0.0088,-0.0062,-0.0062,-0.0055,-0.004,-0.0059,-0.0032,-0.0033,0.0007,0.0009,0.0005,-0.0009,0.0009,0.0015,0.0017,0.0019,-0.0007,-0.0007,-0.0003,-0.0003,-0.0003,-0.0003,0,-0.006,-0.0043,-0.0029,-0.0009,-0.0007,0.0011,0.0007,0.0011,0.0002,0.0005,0.0026,0.0019,0.0037,0.0027,0.0025,0.004,0.0022,0.0016,0.001,0.0023,-0.0005,-0.0006,-0.0001,-0.0002,-0.0002,-0.0002,0,0,-0.0026,-0.0,0.0006,0.0029,0.003,0.0043,0.0063,0.0084,0.0113,0.0091,0.0129,0.012,0.01,0.0108,0.0093,0.0081,0.0064,0.0053,0.0052,0.0031,0.0036,0.0022,0.0019,0.0059,0.006,0.006,0.0006,0,0.0021,0.0077,0.0071,0.0122,0.0153,0.0134,0.0161,0.017,0.0171,0.0197,0.0173,0.0201,0.0137,0.0148,0.0119,0.0094,0.0066,0.0079,0.0025,0.0023,0.0012,0.002,0.0052,0.0008,0.0005,0.0005,0.0005,0,0.0079,0.0108,0.0167,0.0205,0.0217,0.0235,0.0275,0.0298,0.0316,0.0318,0.0314,0.0296,0.0282,0.0223,0.0155,0.0166,0.0098,0.0059,0.0056,0.0038,0.0008,-0.0003,0.0006,-0.0117,0.0003,0.0003,0.0003,0,0.0132,0.0179,0.023,0.0241,0.0273,0.0296,0.0317,0.034,0.0386,0.0403,0.0435,0.0392,0.0396,0.0304,0.0196,0.0181,0.0116,0.0089,0.0006,0.0003,0.002,0.0018,-0.009,0.0031,0.0032,0.0032,0.0032,0,0.0193,0.0234,0.0259,0.0287,0.0358,0.0355,0.0432,0.0445,0.049,0.0564,0.0505,0.0549,0.0417,0.0361,0.0235,0.0119,0.0139,0.0014,-0.0004,0.0027,0.0027,-0.0089,-0.0153,0.003,0.003,0.003,0.0031,0,0.0248,0.0263,0.0324,0.0365,0.0386,0.0439,0.0517,0.0575,0.06,0.0694,0.0709,0.0681,0.0607,0.0458,0.0324,0.0193,0.0011,0.0022,0.0056,0.0042,-0.0151,-0.0213,-0.0332,-0.0376,-0.0073,-0.0073,-0.0074,0,0.0281,0.0318,0.0385,0.0433,0.0455,0.053,0.0591,0.0633,0.0706,0.0784,0.0843,0.0803,0.0801,0.0583,0.0351,0.0133,0.0005,0.0002,-0.0023,-0.0154,-0.0238,-0.029,-0.0322,-0.0003,-0.0003,-0.0003,-0.0003,0,0.0342,0.0361,0.0411,0.051,0.0579,0.0673,0.0763,0.084,0.0904,0.0988,0.1083,0.1093,0.0888,0.0699,0.0385,0.0223,-0.0066,-0.0003,-0.0135,-0.0189,-0.0252,-0.0305,0.0004,-0.0002,-0.0002,-0.0002,-0.0002,-0.0002,0.0383,0.0431,0.0496,0.0593,0.0684,0.0808,0.0898,0.1006,0.1145,0.1282,0.1265,0.1316,0.0998,0.0592,0.0366,-0.0052,-0.0065,-0.018,-0.0246,-0.0289,-0.0327,-0.0027,-0.0054,-0.0054,-0.0055,-0.0055,-0.0055,0,0.0435,0.0491,0.0579,0.0696,0.0806,0.0843,0.1008,0.1113,0.1289,0.1414,0.1501,0.1378,0.1017,0.0615,0.0057,-0.0232,-0.0339,-0.0408,-0.0473,-0.0495,-0.0221,-0.0213,-0.0277,-0.0277,-0.0277,-0.0277,-0.0277,-0.0276,0.0466,0.0551,0.0595,0.0775,0.0864,0.1019,0.112,0.1293,0.1425,0.1594,0.164,0.163,0.1284,0.0311,-0.0344,-0.049,-0.0668,-0.0727,-0.0835,-0.0653,-0.0637,-0.0622,-0.063,-0.0781,-0.0782,-0.1058,-0.1061,-0.1063]}],[{"header":{"parameterUnit":"m.s-1","parameterCategory":2,"la1":30.2991,"la2":30.254,"lo1":-89.0895,"lo2":-89.0444,"dy":0.0017,"dx":0.0017,"nx":28,"ny":28,"refTime":"2024-02-20T03:00:00:Z","depth":"2","parameterNumber":2,"parameterNumberName":"U-component_of_CURRENTS"},"data":[0,0,0,0,0,0,0,0,0,0,0,0,0,0,0,0,0,0,0,0,0,0,0,0,0,0,0,0,0,0,0,0,0,0,0,0,0,0,0,0,0,0,0,0,0,0,0,0,0,0,0,0,0,0,0,0,0,0,0.2487,0.2487,0,0.2479,0.2479,0.2479,0.2463,0.2463,0.2463,0.2463,0.2431,0.2431,0.243,0,0,0,0,0,0,0,0,0,0,0,0,0,0.249,0.249,0.2487,0.2487,0.2487,0.2479,0.2479,0.2478,0.2463,0.2463,0.2463,0.2463,0.2432,0.2431,0.243,0,0,0,0,0,0,0,0,0,0,0,0,0,0.2484,0.249,0.2487,0.2481,0.248,0.2479,0.2479,0.2478,0.2463,0.2463,0.2463,0.2463,0.2432,0.2431,0.243,0.2424,0,0,0.2426,0.2425,0,0,0,0,0,0,0,0,0.2484,0.2483,0.2481,0.2481,0.2481,0.2474,0.2468,0.246,0.2463,0.2467,0.2463,0.2463,0.2445,0.2443,0.2438,0.2422,0.2421,0.2426,0.2425,0.2425,0.2424,0,0,0,0,0,0,0,0.2484,0.2483,0.2481,0.2482,0.2481,0.2479,0.2478,0.2467,0.2454,0.2466,0.2466,0.247,0.2445,0.2439,0.2437,0.242,0.2426,0.2425,0.2424,0.2424,0.2461,0.2463,0,0,0,0,0,0,0.2491,0.2484,0.2481,0.2481,0.2485,0.2479,0.2478,0.2474,0.2455,0.2453,0.247,0.2469,0.2441,0.2439,0.2436,0.2481,0.2425,0.2423,0.2423,0.2459,0.2461,0.2463,0,0,0,0,0,0,0.2491,0.249,0.2482,0.2485,0.2484,0.2479,0.2476,0.2474,0.2487,0.2458,0.2455,0.2486,0.2441,0.2438,0.2449,0.2477,0.2423,0.2422,0.2457,0.246,0.2462,0.2536,0,0,0,0,0,0,0.2491,0.249,0.248,0.2485,0.2484,0.2492,0.2476,0.2474,0.2489,0.2489,0.2471,0.2467,0.2441,0.2452,0.2448,0.2475,0.2421,0.2455,0.2458,0.2461,0.2531,0.254,0.2548,0,0,0,0,0,0.2491,0.2478,0.2479,0.2479,0.2473,0.2493,0.2493,0.2487,0.2491,0.2498,0.2495,0.2468,0.247,0.2452,0.2448,0.2474,0.2454,0.2457,0.2461,0.2527,0.2538,0.2548,0,0,0,0,0,0,0.2458,0.2476,0.2477,0.2465,0.2486,0.2492,0.2498,0.2503,0.2506,0.2509,0.2485,0.2481,0.2505,0.2482,0.2464,0.2497,0.2459,0.2462,0.2511,0.2521,0.253,0.2532,0.242,0,0,0,0,0,0.2451,0.2468,0.2475,0.2478,0.2487,0.25,0.2506,0.2509,0.2518,0.252,0.2513,0.2509,0.2515,0.2513,0.251,0.2522,0.2511,0.2539,0.2548,0.2555,0.2556,0.2575,0.2585,0.2476,0.2476,0.2476,0,0,0.2448,0.2459,0.2469,0.2477,0.2494,0.2512,0.2504,0.2527,0.2547,0.2515,0.2542,0.2541,0.2528,0.2547,0.2555,0.2531,0.2583,0.256,0.2566,0.2563,0.258,0.2591,0.26,0.2478,0.2478,0.2477,0,0,0.2456,0.2458,0.2471,0.2491,0.2518,0.253,0.2546,0.2564,0.2575,0.2601,0.2592,0.261,0.261,0.2608,0.2607,0.2662,0.2634,0.2666,0.2703,0.2722,0.2731,0.2739,0.2747,0.2754,0.2664,0.2664,0.2664,0,0.2451,0.2457,0.2479,0.2496,0.2514,0.2547,0.2563,0.2586,0.2608,0.262,0.262,0.2648,0.264,0.2665,0.2689,0.2681,0.2684,0.2663,0.2733,0.274,0.2747,0.2753,0.276,0.2668,0.2668,0.2667,0.2667,0,0.2457,0.2472,0.249,0.2528,0.2548,0.2578,0.261,0.2635,0.2661,0.268,0.2721,0.2721,0.2733,0.2744,0.2733,0.278,0.2765,0.2747,0.2704,0.2762,0.2765,0.2772,0.2674,0.2672,0.2671,0.267,0,0,0.2435,0.2484,0.2493,0.2503,0.2566,0.2576,0.2632,0.267,0.2698,0.2738,0.2771,0.2805,0.2814,0.2814,0.2811,0.2831,0.2887,0.2815,0.2814,0.2818,0.2929,0.2875,0.2877,0.2885,0.2886,0.2887,0.2915,0,0.2439,0.2458,0.2493,0.253,0.2539,0.2593,0.2639,0.2682,0.2726,0.2769,0.2802,0.2838,0.284,0.2851,0.2879,0.2887,0.2907,0.2881,0.2875,0.2875,0.2817,0.2883,0.2648,0.2649,0.2921,0.2922,0.2922,0,0.2422,0.2439,0.2463,0.2511,0.2522,0.2558,0.2618,0.2665,0.2747,0.2781,0.2836,0.2866,0.2922,0.2908,0.2961,0.2947,0.2948,0.2949,0.295,0.2876,0.2833,0.2635,0.265,0.2933,0.2932,0.2931,0.293,0,0.2362,0.2413,0.2427,0.2447,0.2513,0.2539,0.2586,0.2666,0.2715,0.2798,0.2844,0.2903,0.2948,0.2969,0.2999,0.2983,0.3047,0.3015,0.2964,0.296,0.2744,0.2719,0.3044,0.3044,0.3044,0.3044,0.3044,0,0.2337,0.2345,0.24,0.2407,0.2436,0.2497,0.2554,0.2606,0.2706,0.2758,0.2853,0.2897,0.297,0.3019,0.3019,0.3025,0.3065,0.2984,0.297,0.2765,0.2742,0.2969,0.2959,0.3045,0.3045,0.3045,0.3044,0,0.227,0.2311,0.2321,0.2384,0.241,0.243,0.2544,0.2576,0.269,0.2762,0.2797,0.2921,0.2979,0.3038,0.3074,0.3051,0.3051,0.3034,0.2792,0.2749,0.2941,0.2936,0.2974,0.2973,0.2971,0.297,0.2969,0,0.2231,0.2234,0.2291,0.2305,0.2341,0.2396,0.2435,0.2553,0.2598,0.2753,0.2772,0.2888,0.2936,0.3006,0.2979,0.2978,0.3031,0.2746,0.267,0.2955,0.2938,0.2934,0.2931,0.2413,0.2407,0.2403,0.24,0,0.2167,0.2196,0.2213,0.2243,0.2278,0.2314,0.2381,0.2419,0.2544,0.2609,0.269,0.2754,0.2848,0.2748,0.2777,0.274,0.273,0.2657,0.3015,0.2478,0.2431,0.2413,0.2426,0.236,0.2364,0.2367,0.2369,0.2371,0.2124,0.2119,0.2153,0.2168,0.2203,0.2212,0.2204,0.2271,0.2322,0.2381,0.2513,0.2521,0.2559,0.2489,0.2414,0.236,0.2548,0.2408,0.2419,0.2435,0.2376,0.2331,0.223,0.2233,0.2236,0.2238,0.224,0,0.2054,0.2059,0.2072,0.2075,0.2054,0.2117,0.214,0.2102,0.2088,0.2175,0.2224,0.2066,0.2019,0.2062,0.1924,0.1933,0.19,0.1844,0.176,0.1802,0.1838,0.1746,0.1433,0.1431,0.1428,0.1426,0,0,0.2023,0.1996,0.1988,0.1922,0.1923,0.1863,0.1845,0.1807,0.1829,0.1794,0.1777,0.1933,0.2008,0.1683,0.1648,0.1509,0.1644,0.1457,0.2109,0.2053,0.2086,0.2176,0.2083,0,0,0,0,0]},{"header":{"parameterUnit":"m.s-1","parameterCategory":2,"la1":30.2991,"la2":30.254,"lo1":-89.0895,"lo2":-89.0444,"dy":0.0017,"dx":0.0017,"nx":28,"ny":28,"refTime":"2024-02-20T03:00:00:Z","depth":"2","parameterNumber":3,"parameterNumberName":"V-component_of_CURRENTS"},"data":[0,0,0,0,0,0,0,0,0,0,0,0,0,0,0,0,0,0,0,0,0,0,0,0,0,0,0,0,0,0,0,0,0,0,0,0,0,0,0,0,0,0,0,0,0,0,0,0,0,0,0,0,0,0,0,0,0,0,0.0127,0.0127,0,0.0114,0.0114,0.0114,0.0101,0.0101,0.0101,0.0101,0.009,0.009,0.009,0,0,0,0,0,0,0,0,0,0,0,0,0,0.0121,0.0121,0.0127,0.0127,0.0127,0.0114,0.0114,0.0113,0.0101,0.0101,0.0101,0.0101,0.009,0.009,0.009,0,0,0,0,0,0,0,0,0,0,0,0,0,0.0118,0.0122,0.0128,0.0119,0.0118,0.0114,0.0114,0.0113,0.0102,0.0101,0.0101,0.0101,0.009,0.009,0.009,0.0096,0,0,0.009,0.009,0,0,0,0,0,0,0,0,0.0118,0.0118,0.012,0.0119,0.0118,0.0108,0.0107,0.0107,0.0102,0.0109,0.0101,0.01,0.0096,0.0095,0.0095,0.0095,0.0095,0.009,0.009,0.0089,0.0089,0,0,0,0,0,0,0,0.0119,0.0119,0.0123,0.012,0.0119,0.0108,0.0107,0.0107,0.0105,0.0108,0.0107,0.0104,0.0096,0.0095,0.0095,0.0095,0.009,0.0089,0.0089,0.0089,0.0094,0.0094,0,0,0,0,0,0,0.012,0.0119,0.0123,0.0122,0.0116,0.0108,0.0108,0.0112,0.0105,0.0103,0.0104,0.0103,0.0095,0.0095,0.0094,0.0107,0.0089,0.0089,0.0089,0.0093,0.0094,0.0094,0,0,0,0,0,0,0.012,0.0121,0.0124,0.0119,0.0119,0.0109,0.0114,0.0112,0.0109,0.0102,0.01,0.0102,0.0095,0.0094,0.0101,0.0106,0.0089,0.0089,0.0093,0.0093,0.0094,0.0129,0,0,0,0,0,0,0.012,0.0121,0.0127,0.012,0.0119,0.0129,0.0114,0.0112,0.0107,0.0106,0.01,0.0098,0.0095,0.0101,0.0101,0.0106,0.0089,0.0093,0.0093,0.0094,0.0127,0.013,0.0133,0,0,0,0,0,0.012,0.0137,0.0127,0.0128,0.0127,0.0129,0.0128,0.012,0.0107,0.0114,0.0109,0.0098,0.0103,0.0102,0.0101,0.0106,0.0093,0.0093,0.0094,0.0126,0.013,0.0133,0,0,0,0,0,0,0.0142,0.0137,0.0126,0.0141,0.0135,0.0127,0.0132,0.012,0.012,0.0118,0.0107,0.0107,0.0111,0.0104,0.0103,0.0107,0.0093,0.0094,0.0118,0.0121,0.0124,0.0138,0.0089,0,0,0,0,0,0.0147,0.0154,0.0145,0.0155,0.0154,0.014,0.0138,0.0131,0.0128,0.0127,0.0122,0.0115,0.0113,0.0114,0.0111,0.0119,0.0101,0.0118,0.0121,0.0123,0.0134,0.0109,0.011,0.0095,0.0095,0.0095,0,0,0.0157,0.0154,0.0159,0.0159,0.0153,0.0166,0.0139,0.0141,0.015,0.0126,0.0141,0.0125,0.0116,0.0124,0.0125,0.012,0.0116,0.0124,0.0126,0.0135,0.0109,0.0111,0.0112,0.0095,0.0095,0.0095,0,0,0.0186,0.018,0.0196,0.0195,0.0187,0.0183,0.0183,0.0174,0.0171,0.0177,0.016,0.0151,0.015,0.0145,0.0142,0.0157,0.0129,0.0149,0.0178,0.0154,0.0155,0.0156,0.0128,0.0126,0.0153,0.0153,0.0153,0,0.0196,0.0217,0.0201,0.0216,0.0223,0.0193,0.0216,0.021,0.0204,0.0207,0.0188,0.0176,0.0162,0.017,0.0173,0.0164,0.0143,0.0168,0.0158,0.0158,0.0158,0.013,0.0127,0.0155,0.0155,0.0154,0.0154,0,0.0239,0.0252,0.0263,0.0274,0.028,0.0292,0.0283,0.0284,0.0269,0.026,0.0255,0.0229,0.0223,0.0209,0.0197,0.0194,0.0176,0.0162,0.0151,0.0162,0.0131,0.0128,0.0157,0.0157,0.0156,0.0156,0,0,0.0272,0.029,0.0294,0.0311,0.0311,0.0325,0.0339,0.0349,0.0364,0.0333,0.0347,0.0318,0.029,0.0284,0.0255,0.023,0.0204,0.02,0.0198,0.0176,0.0147,0.0133,0.0128,0.0186,0.0186,0.0186,0.0122,0,0.0309,0.0354,0.0353,0.0398,0.0422,0.0406,0.0429,0.043,0.0419,0.0423,0.0374,0.0375,0.0323,0.0318,0.0282,0.0231,0.0199,0.0223,0.0137,0.0135,0.0124,0.0125,0.0147,0.0092,0.0119,0.0118,0.0118,0,0.0352,0.0379,0.043,0.0467,0.0477,0.0498,0.0529,0.0547,0.0537,0.0526,0.05,0.0461,0.0423,0.0373,0.028,0.0297,0.0227,0.0175,0.0171,0.0148,0.0116,0.0087,0.0085,0.0112,0.0112,0.0113,0.0113,0,0.039,0.0434,0.0479,0.049,0.0525,0.0546,0.0569,0.0577,0.0611,0.0594,0.0605,0.0538,0.0517,0.0419,0.0301,0.0293,0.0191,0.0167,0.0085,0.0083,0.0081,0.0079,0.0098,0.0098,0.0098,0.0098,0.0098,0,0.0431,0.0468,0.05,0.0525,0.0593,0.0596,0.0663,0.0669,0.0692,0.0737,0.0664,0.0675,0.0528,0.0449,0.0328,0.0199,0.0208,0.0094,0.0068,0.0093,0.0093,0.0096,0.0096,0.0096,0.0096,0.0097,0.0097,0,0.0464,0.048,0.054,0.0588,0.0612,0.0662,0.074,0.0786,0.0793,0.0846,0.0846,0.0784,0.068,0.0524,0.0366,0.0249,0.0118,0.0067,0.0103,0.0083,0.0017,0.002,-0.0026,-0.0026,-0.0027,-0.0028,-0.0028,0,0.0482,0.0515,0.0594,0.0641,0.0665,0.0741,0.0798,0.0836,0.0892,0.0917,0.0948,0.0866,0.0823,0.0583,0.0362,0.0149,0.0116,0.0024,0.0012,0.0026,0.0006,0.001,0.0014,0.0016,0.0016,0.0016,0.0015,0,0.0525,0.0551,0.0604,0.0701,0.0768,0.0863,0.0943,0.1006,0.105,0.1089,0.1118,0.1085,0.0858,0.0649,0.0353,0.0208,0.0059,0.0015,0.0023,0.0048,0.0061,0.0043,0.0046,0.0014,0.0014,0.0015,0.0015,0.0015,0.0558,0.0606,0.0676,0.0769,0.0856,0.0968,0.1049,0.1129,0.1228,0.1282,0.1245,0.1192,0.0945,0.0576,0.0321,0.005,0.0066,-0.0033,-0.0031,-0.0029,-0.0008,0.0003,-0.0051,-0.0051,-0.0052,-0.0052,-0.0052,0,0.0602,0.0656,0.0741,0.0854,0.095,0.0993,0.1135,0.1212,0.1322,0.1356,0.1373,0.1136,0.0901,0.0614,0.0222,-0.0008,-0.0026,-0.0089,-0.0058,-0.0054,-0.0052,-0.0032,-0.0081,-0.0082,-0.0083,-0.0084,0,0,0.0627,0.0709,0.0752,0.0909,0.0991,0.1129,0.1214,0.132,0.1384,0.1422,0.1384,0.1318,0.0979,0.0686,0.0371,0.0145,0.0098,0.0098,0.0149,0.0228,0.0233,0.0009,0.0048,0,0,0,0,0]}],[{"header":{"parameterUnit":"m.s-1","parameterCategory":2,"la1":30.2991,"la2":30.254,"lo1":-89.0895,"lo2":-89.0444,"dy":0.0017,"dx":0.0017,"nx":28,"ny":28,"refTime":"2024-02-20T03:00:00:Z","depth":"4","parameterNumber":2,"parameterNumberName":"U-component_of_CURRENTS"},"data":[0,0,0,0,0,0,0,0,0,0,0,0,0,0,0,0,0,0,0,0,0,0,0,0,0,0,0,0,0,0,0,0,0,0,0,0,0,0,0,0,0,0,0,0,0,0,0,0,0,0,0,0,0,0,0,0,0,0,0.1375,0.1376,0,0.1437,0.1437,0.1438,0.1501,0.1502,0.1503,0.1504,0.1629,0.1632,0.1634,0,0,0,0,0,0,0,0,0,0,0,0,0,0.131,0.1311,0.1375,0.1376,0.1377,0.1437,0.1438,0.1438,0.1501,0.1502,0.1503,0.1504,0.1629,0.1632,0.1635,0,0,0,0,0,0,0,0,0,0,0,0,0,0.1351,0.1311,0.1375,0.1416,0.142,0.1437,0.1438,0.1438,0.1501,0.1502,0.1503,0.1505,0.1628,0.1631,0.1635,0.163,0,0,0.1646,0.1648,0,0,0,0,0,0,0,0,0.1348,0.1353,0.1409,0.1413,0.1418,0.1464,0.1461,0.1506,0.15,0.1469,0.1504,0.1505,0.158,0.1587,0.1593,0.1635,0.1641,0.1647,0.1649,0.165,0.1651,0,0,0,0,0,0,0,0.1345,0.1351,0.1399,0.141,0.1416,0.1431,0.1438,0.1469,0.1516,0.1472,0.1477,0.1485,0.1583,0.159,0.1597,0.1643,0.1647,0.165,0.1652,0.1654,0.1805,0.1806,0,0,0,0,0,0,0.1338,0.1348,0.1397,0.1401,0.1387,0.1431,0.1439,0.1447,0.1515,0.1526,0.1484,0.1488,0.1583,0.1593,0.1602,0.1702,0.165,0.1654,0.1656,0.1803,0.1805,0.1807,0,0,0,0,0,0,0.1337,0.1342,0.1394,0.1376,0.1384,0.1431,0.1439,0.1447,0.1488,0.1523,0.1536,0.152,0.1584,0.1597,0.1668,0.1704,0.1656,0.1659,0.1801,0.1803,0.1806,0.1838,0,0,0,0,0,0,0.1334,0.1341,0.1365,0.1376,0.1385,0.1424,0.1438,0.1447,0.1489,0.1496,0.1558,0.1569,0.1586,0.1663,0.1672,0.1708,0.1662,0.1798,0.1802,0.1805,0.1834,0.1841,0.1847,0,0,0,0,0,0.1332,0.1351,0.1365,0.1373,0.1409,0.1425,0.1432,0.1468,0.149,0.151,0.1563,0.1569,0.1691,0.1667,0.1678,0.1716,0.1797,0.1801,0.1805,0.1831,0.184,0.1847,0,0,0,0,0,0,0.134,0.1359,0.1376,0.1402,0.1423,0.1437,0.1464,0.1483,0.1537,0.1559,0.1591,0.1606,0.1683,0.1695,0.1668,0.177,0.1745,0.1751,0.1762,0.177,0.1776,0.1776,0.1665,0,0,0,0,0,0.135,0.1368,0.1386,0.141,0.1423,0.1449,0.1469,0.1491,0.1528,0.1554,0.1596,0.1648,0.17,0.1733,0.1775,0.1827,0.1834,0.1859,0.1865,0.187,0.1879,0.1925,0.1936,0.182,0.182,0.182,0,0,0.1357,0.1373,0.1384,0.1414,0.1434,0.1455,0.1465,0.1501,0.1532,0.156,0.1631,0.1675,0.1721,0.1786,0.1821,0.1805,0.1905,0.1875,0.1879,0.1885,0.193,0.1942,0.1951,0.1823,0.1822,0.1822,0,0,0.137,0.1398,0.1417,0.1436,0.1473,0.1483,0.1499,0.1532,0.1568,0.1628,0.1666,0.1734,0.18,0.1843,0.1872,0.1937,0.1939,0.1955,0.1986,0.2031,0.204,0.2049,0.2056,0.2065,0.1955,0.1955,0.1955,0,0.1386,0.1406,0.1426,0.145,0.1469,0.1497,0.152,0.1554,0.1612,0.165,0.166,0.1789,0.1826,0.1913,0.1941,0.1952,0.1967,0.195,0.2037,0.2046,0.2054,0.206,0.207,0.1957,0.1956,0.1956,0.1956,0,0.1403,0.1432,0.1444,0.148,0.1505,0.1527,0.1566,0.1611,0.1654,0.1692,0.1794,0.185,0.1928,0.195,0.1968,0.2054,0.2041,0.204,0.2013,0.2068,0.207,0.208,0.196,0.1959,0.1958,0.1958,0,0,0.1394,0.1445,0.1453,0.1471,0.1522,0.1535,0.1598,0.1653,0.1707,0.1777,0.185,0.1945,0.1988,0.2024,0.2062,0.2101,0.2165,0.21,0.2102,0.2098,0.2247,0.2095,0.209,0.2185,0.2187,0.2189,0.2219,0,0.1402,0.144,0.1469,0.1505,0.1521,0.157,0.1619,0.1684,0.175,0.1831,0.191,0.1999,0.2013,0.2067,0.2112,0.2167,0.2195,0.2156,0.2204,0.2204,0.2055,0.2098,0.2196,0.2226,0.2228,0.2229,0.223,0,0.1403,0.1426,0.1465,0.151,0.1525,0.1561,0.1644,0.1697,0.1816,0.1875,0.198,0.2047,0.2151,0.2141,0.2248,0.2227,0.2243,0.2261,0.2263,0.2118,0.207,0.2166,0.2247,0.2246,0.2245,0.2243,0.2242,0,0.1365,0.1418,0.1445,0.1463,0.1526,0.1568,0.1615,0.1723,0.1791,0.1925,0.1996,0.211,0.2195,0.2242,0.2301,0.2287,0.2388,0.2367,0.2236,0.2224,0.2337,0.2328,0.2422,0.2422,0.2422,0.2422,0.2422,0,0.1338,0.1361,0.1436,0.1447,0.1493,0.1554,0.1636,0.1701,0.183,0.1908,0.203,0.2105,0.2232,0.2307,0.2323,0.2308,0.2409,0.2244,0.2228,0.2347,0.2339,0.2342,0.2332,0.2423,0.2423,0.2422,0.2422,0,0.1285,0.1335,0.1367,0.1444,0.1477,0.1515,0.1642,0.1696,0.1829,0.1938,0.199,0.2145,0.2223,0.231,0.239,0.2329,0.2329,0.2294,0.2408,0.2398,0.2122,0.2115,0.2135,0.213,0.2125,0.2122,0.2119,0,0.1256,0.127,0.1357,0.1385,0.1425,0.1504,0.1553,0.1684,0.1746,0.1933,0.1966,0.2111,0.2189,0.218,0.2269,0.2274,0.2251,0.2226,0.2173,0.2114,0.2097,0.2096,0.2094,0.2112,0.2111,0.211,0.2109,0,0.1194,0.1243,0.1271,0.1331,0.1384,0.1435,0.152,0.1559,0.17,0.1841,0.19,0.195,0.2031,0.2081,0.2111,0.211,0.2229,0.2182,0.2189,0.2139,0.2087,0.2074,0.2077,0.2094,0.2097,0.2098,0.2099,0,0.1156,0.1162,0.1216,0.1254,0.1317,0.1335,0.1396,0.1455,0.1534,0.1728,0.1738,0.1875,0.2004,0.1995,0.2018,0.2013,0.1973,0.1899,0.192,0.1938,0.186,0.1764,0.1661,0,0,0,0,0,0.1106,0.1101,0.1132,0.116,0.1217,0.1255,0.1352,0.1417,0.1557,0.1548,0.1642,0.1698,0.1744,0.1817,0.1771,0.1924,0.198,0.186,0.1904,0.2014,0.203,0.1958,0,0,0,0,0,0,0.1072,0.1098,0.1097,0.1075,0.1078,0.1126,0.1181,0.1275,0.1283,0.1434,0.1471,0.1584,0.1659,0.1752,0.1736,0.1755,0.1744,0.1946,0.1941,0.2004,0.2019,0.2033,0.1964,0,0,0,0,0]},{"header":{"parameterUnit":"m.s-1","parameterCategory":2,"la1":30.2991,"la2":30.254,"lo1":-89.0895,"lo2":-89.0444,"dy":0.0017,"dx":0.0017,"nx":28,"ny":28,"refTime":"2024-02-20T03:00:00:Z","depth":"4","parameterNumber":3,"parameterNumberName":"V-component_of_CURRENTS"},"data":[0,0,0,0,0,0,0,0,0,0,0,0,0,0,0,0,0,0,0,0,0,0,0,0,0,0,0,0,0,0,0,0,0,0,0,0,0,0,0,0,0,0,0,0,0,0,0,0,0,0,0,0,0,0,0,0,0,0,0.0153,0.0153,0,0.0142,0.0142,0.0142,0.0134,0.0134,0.0133,0.0133,0.0126,0.0126,0.0126,0,0,0,0,0,0,0,0,0,0,0,0,0,0.0152,0.0152,0.0153,0.0153,0.0152,0.0142,0.0142,0.0141,0.0134,0.0134,0.0133,0.0133,0.0126,0.0126,0.0126,0,0,0,0,0,0,0,0,0,0,0,0,0,0.0149,0.0152,0.0153,0.0146,0.0145,0.0142,0.0142,0.0141,0.0134,0.0134,0.0133,0.0133,0.0126,0.0126,0.0126,0.013,0,0,0.0125,0.0125,0,0,0,0,0,0,0,0,0.0149,0.0149,0.0147,0.0147,0.0146,0.0138,0.0138,0.0137,0.0134,0.0139,0.0133,0.0133,0.0129,0.0129,0.0129,0.013,0.0129,0.0125,0.0125,0.0125,0.0125,0,0,0,0,0,0,0,0.0149,0.0149,0.0149,0.0147,0.0146,0.0138,0.0138,0.0138,0.0137,0.0139,0.0138,0.0135,0.0129,0.0129,0.0129,0.0129,0.0125,0.0125,0.0125,0.0125,0.0128,0.0128,0,0,0,0,0,0,0.0149,0.0149,0.015,0.0149,0.0145,0.0139,0.0138,0.0142,0.0137,0.0135,0.0135,0.0135,0.0129,0.0129,0.0129,0.014,0.0125,0.0125,0.0125,0.0128,0.0128,0.0128,0,0,0,0,0,0,0.0149,0.015,0.015,0.0148,0.0147,0.0139,0.0143,0.0141,0.0142,0.0134,0.0133,0.0136,0.0129,0.0129,0.0134,0.0139,0.0125,0.0125,0.0128,0.0128,0.0128,0.0159,0,0,0,0,0,0,0.015,0.015,0.0154,0.0148,0.0147,0.0155,0.0143,0.0141,0.0139,0.0139,0.0135,0.0133,0.0129,0.0135,0.0134,0.0139,0.0125,0.0128,0.0128,0.0128,0.0158,0.016,0.0162,0,0,0,0,0,0.015,0.0162,0.0155,0.0155,0.0153,0.0156,0.0155,0.0149,0.014,0.0147,0.0142,0.0134,0.0135,0.0135,0.0135,0.0139,0.0128,0.0128,0.0128,0.0157,0.016,0.0162,0,0,0,0,0,0,0.0166,0.0162,0.0154,0.0165,0.0161,0.0154,0.0159,0.015,0.0152,0.015,0.0141,0.014,0.0145,0.0138,0.0137,0.0139,0.0128,0.0128,0.015,0.0152,0.0155,0.0165,0.0125,0,0,0,0,0,0.017,0.0178,0.0169,0.0178,0.0177,0.0166,0.0166,0.016,0.0158,0.0158,0.0154,0.0148,0.0145,0.0146,0.0143,0.0149,0.0131,0.0149,0.0152,0.0154,0.0161,0.0133,0.0134,0.0129,0.0129,0.0129,0,0,0.018,0.0177,0.0182,0.0181,0.0178,0.0188,0.0167,0.017,0.0178,0.0158,0.0171,0.0158,0.0148,0.0154,0.0155,0.015,0.0144,0.0154,0.0156,0.0162,0.0134,0.0134,0.0135,0.0129,0.0129,0.0129,0,0,0.0203,0.0199,0.0212,0.0212,0.0207,0.0204,0.0205,0.0199,0.0197,0.0204,0.0188,0.0179,0.0181,0.0172,0.0168,0.018,0.0156,0.0176,0.0199,0.0172,0.0172,0.0172,0.0146,0.0143,0.0178,0.0178,0.0178,0,0.0213,0.0229,0.0217,0.0228,0.0235,0.0214,0.0232,0.0228,0.0225,0.0226,0.0214,0.0201,0.0189,0.0191,0.0194,0.0186,0.0167,0.0191,0.0175,0.0175,0.0174,0.0147,0.0144,0.018,0.018,0.0179,0.0179,0,0.0244,0.0257,0.0266,0.0276,0.0283,0.0295,0.0287,0.0289,0.0279,0.0272,0.0267,0.0244,0.0237,0.0226,0.0216,0.0207,0.0193,0.018,0.017,0.0176,0.0147,0.0143,0.0182,0.0181,0.0181,0.0181,0,0,0.0267,0.0285,0.0289,0.0304,0.0309,0.0321,0.0333,0.034,0.035,0.0328,0.0335,0.0313,0.029,0.0283,0.0258,0.0232,0.0206,0.0209,0.0207,0.0186,0.0146,0.0137,0.0131,0.0189,0.0189,0.0189,0.0126,0,0.0295,0.033,0.0333,0.0373,0.0392,0.0384,0.0402,0.0403,0.0395,0.0395,0.0353,0.0352,0.0315,0.031,0.0276,0.0228,0.0198,0.0224,0.0141,0.0138,0.0131,0.0127,0.0187,0.0123,0.0122,0.0122,0.0121,0,0.0323,0.0346,0.0389,0.0424,0.0433,0.0455,0.048,0.0495,0.0483,0.0473,0.045,0.0417,0.0381,0.0344,0.0259,0.0278,0.0218,0.0171,0.0167,0.0147,0.0122,0.0115,0.0114,0.0114,0.0115,0.0115,0.0116,0,0.0344,0.0386,0.0425,0.0437,0.0471,0.0492,0.0514,0.052,0.0543,0.0526,0.0529,0.0472,0.0451,0.0367,0.0266,0.0264,0.0163,0.0148,0.008,0.0078,0.0092,0.0092,0.0083,0.0083,0.0083,0.0084,0.0084,0,0.0368,0.0401,0.044,0.0462,0.052,0.053,0.0585,0.059,0.0606,0.0634,0.0576,0.0572,0.0456,0.0381,0.0282,0.0169,0.0172,0.0085,0.0062,0.0105,0.0108,0.0088,0.009,0.0081,0.0082,0.0082,0.0083,0,0.0381,0.0404,0.0457,0.0507,0.0531,0.0575,0.0646,0.0678,0.0684,0.0716,0.0714,0.0652,0.0557,0.0429,0.029,0.0201,0.0087,0.0043,0.0101,0.0082,0.0016,0.002,-0.0031,-0.0032,-0.0033,-0.0033,-0.0034,0,0.0388,0.0416,0.0495,0.0536,0.0564,0.0633,0.068,0.0716,0.0753,0.0762,0.0775,0.07,0.0637,0.0435,0.0297,0.0104,0.0072,0.0007,0.0009,0.0022,0.0004,0.0009,0.0014,-0.0035,-0.0035,-0.0035,-0.0036,0,0.0406,0.0437,0.0483,0.0568,0.063,0.0709,0.0777,0.0809,0.0844,0.0849,0.0821,0.0715,0.0606,0.0443,0.029,0.015,0.0047,-0.0001,-0.0,0.0001,0.0016,0.0001,0.0006,-0.0038,-0.0038,-0.0037,-0.0037,0,0.0423,0.0459,0.0522,0.0598,0.0681,0.0759,0.0796,0.0836,0.0874,0.0874,0.0863,0.0739,0.0672,0.0467,0.0327,0.0187,0.0151,0.0096,0.0091,0.0092,0.0142,0.018,0.0159,0,0,0,0,0,0.0436,0.0479,0.0547,0.0632,0.0713,0.0765,0.0849,0.0876,0.0906,0.089,0.0879,0.0774,0.0571,0.0489,0.0348,0.031,0.0124,0.0139,0.0058,-0.0052,-0.0049,-0.0013,0,0,0,0,0,0,0.0446,0.0508,0.0544,0.0646,0.0705,0.08,0.0856,0.0877,0.0872,0.0874,0.0773,0.0724,0.0533,0.0647,0.0339,0.0299,0.0224,0.0049,0.0045,-0.0053,-0.0051,-0.0048,-0.0011,0,0,0,0,0]}]]